Weather History for PHOG - May, 2014

Change the Weather History Date:

Saturday, May 3, 2014

  Actual Average Record
Temperature  
Mean Temperature 76 °F 75 °F  
Max Temperature 86 °F 83 °F 89 °F (2007)
Min Temperature 66 °F 66 °F 58 °F (2006)
Degree Days  
Heating Degree Days 0 0  
Month to date heating degree days 0 0  
Since 1 July heating degree days 0 0  
Cooling Degree Days 11 10  
Month to date cooling degree days 32 30  
Year to date cooling degree days 1142 956  
Growing Degree Days 26 (Base 50)    
Moisture  
Dew Point 67 °F    
Average Humidity 72    
Maximum Humidity 93    
Minimum Humidity 51    
Precipitation  
Precipitation 0.00 in 0.04 in 0.32 in (1986)
Month to date precipitation 0.10 0.11  
Year to date precipitation 13.03 8.87  
Snow  
Snow 0.00 in - - ()
Month to date snowfall 0.0  
Since 1 July snowfall 0.0  
Snow Depth 0.00 in    
Sea Level Pressure  
Sea Level Pressure 30.05 in    
Wind  
Wind Speed 5 mph (ENE)    
Max Wind Speed 16 mph    
Max Gust Speed 21 mph    
Visibility 10 miles    
Events      
T = Trace of Precipitation, MM = Missing Value Source: NWS Daily Summary

Daily Weather History Graph

Daily Weather History Graph

Search for Another Location

Airport or City:

Trip Planner

Search our weather history database for the weather conditions in past years. The results will help you decide how hot, cold, wet, or windy it might be!

Date:

Astronomy

May. 03, 2014 Rise Set
Actual Time 5:54 AM HST 6:51 PM HST
Civil Twilight 5:30 AM HST 7:14 PM HST
Nautical Twilight 5:03 AM HST 7:42 PM HST
Astronomical Twilight 4:35 AM HST 8:10 PM HST
Moon 9:39 AM HST 11:01 PM HST
Length of Visible Light 13h 43m
Length of Day
12h 57m
Waxing Crescent, 21% of the Moon is Illuminated
May 3
Waxing Crescent
May 6
First Quarter
May 14
Full
May 21
Last Quarter
May 28
New

Hourly Weather History & Observations

Time (HST) Temp. Heat Index Dew Point Humidity Pressure Visibility Wind Dir Wind Speed Gust Speed Precip Events Conditions
12:54 AM 71.1 °F - 68.0 °F 90% 30.08 in 10.0 mi Calm Calm - N/A   Clear
1:54 AM 69.1 °F - 66.9 °F 93% 30.06 in 10.0 mi Calm Calm - N/A   Clear
2:54 AM 69.1 °F - 66.9 °F 93% 30.05 in 10.0 mi ESE 8.1 mph - N/A   Clear
3:54 AM 68.0 °F - 64.9 °F 90% 30.04 in 10.0 mi SE 6.9 mph - N/A   Clear
4:54 AM 66.9 °F - 64.0 °F 90% 30.04 in 10.0 mi Calm Calm - N/A   Clear
5:54 AM 66.0 °F - 63.0 °F 90% 30.04 in 10.0 mi SE 4.6 mph - N/A   Clear
6:54 AM 68.0 °F - 64.9 °F 90% 30.06 in 10.0 mi Calm Calm - N/A   Clear
7:54 AM 73.9 °F - 66.9 °F 79% 30.06 in 10.0 mi Calm Calm - N/A   Clear
8:54 AM 77.0 °F - 66.9 °F 71% 30.07 in 10.0 mi NW 4.6 mph - N/A   Partly Cloudy
9:54 AM 81.0 °F 83.0 °F 66.0 °F 60% 30.08 in 10.0 mi Calm Calm - N/A   Partly Cloudy
10:54 AM 82.0 °F 84.1 °F 66.0 °F 58% 30.09 in 10.0 mi North 6.9 mph - N/A   Partly Cloudy
11:54 AM 84.9 °F 86.6 °F 64.9 °F 51% 30.07 in 10.0 mi NNE 10.4 mph - N/A   Partly Cloudy
12:54 PM 84.9 °F 88.2 °F 68.0 °F 57% 30.06 in 10.0 mi NNE 12.7 mph - N/A   Partly Cloudy
1:54 PM 84.9 °F 88.2 °F 68.0 °F 57% 30.04 in 10.0 mi NW 8.1 mph - N/A   Scattered Clouds
2:54 PM 82.9 °F 85.8 °F 68.0 °F 60% 30.02 in 10.0 mi SW 10.4 mph 17.3 mph N/A   Scattered Clouds
3:54 PM 84.0 °F 87.0 °F 68.0 °F 58% 30.01 in 10.0 mi NW 5.8 mph - N/A   Mostly Cloudy
4:54 PM 82.0 °F 85.5 °F 69.1 °F 65% 30.02 in 10.0 mi NE 13.8 mph - N/A   Scattered Clouds
5:54 PM 80.1 °F 82.7 °F 68.0 °F 67% 30.01 in 10.0 mi NE 10.4 mph - N/A   Scattered Clouds
6:54 PM 77.0 °F - 66.0 °F 69% 30.03 in 10.0 mi NE 5.8 mph - N/A   Partly Cloudy
7:54 PM 75.9 °F - 66.9 °F 74% 30.04 in 10.0 mi Calm Calm - N/A   Mostly Cloudy
8:54 PM 75.0 °F - 66.0 °F 73% 30.07 in 10.0 mi NE 3.5 mph - N/A   Clear
9:54 PM 72.0 °F - 66.0 °F 81% 30.08 in 10.0 mi SE 5.8 mph - N/A   Clear
10:54 PM 69.1 °F - 64.9 °F 87% 30.07 in 10.0 mi South 3.5 mph - N/A   Clear
11:54 PM 70.0 °F - 66.0 °F 87% 30.07 in 10.0 mi South 3.5 mph - N/A   Clear